Location: Oregon Trail
(41.1872°N, 102.0741°W)
Time: 18:49:22
(UTC+00:00)

PAYLOAD B - Pass Details

Date: 19 November 2019
Orbit: 848 x 872 km, 99.1° (Epoch: 15 December)

Event Time Altitude Azimuth Distance (km) Brightness Sun altitude
Rises 12:19:56 0° 12° (NNE) 3,424 7.4 -15.2°
Reaches altitude 10° 12:22:18 10° 12° (NNE) 2,483 6.6 -14.7°
Maximum altitude 12:27:49 80° 286° (WNW) 865 4.1 -13.7°
Drops below altitude 10° 12:33:17 10° 200° (SSW) 2,468 6.6 -12.7°
Sets 12:35:38 0° 199° (SSW) 3,401 7.3 -12.3°
